Total_Precipitation_Accumulation
2.03 2.06 2.03 1.96 1.80 1.69 1.58 1.53 1.45 1.35 1.33 1.33 1.35 1.36 1.35 1.33 1.34 1.36 1.32 1.33 1.39 1.54 1.63 1.68 1.73 1.79 1.87 1.86 1.87 1.92 2.04 2.17 2.25 2.16 1.96 1.90 1.91 1.83 1.73 1.54 1.43 1.42 1.42
1.56 1.58 1.58 1.51 1.42 1.36 1.30 1.26 1.27 1.24 1.21 1.24 1.24 1.24 1.28 1.34 1.37 1.31 1.22 1.21 1.30 1.42 1.52 1.60 1.60 1.58 1.65 1.73 1.79 1.76 1.80 1.92 2.04 2.09 1.96 1.81 1.81 1.79 1.74 1.67 1.40 1.27 1.27
1.26 1.27 1.28 1.32 1.30 1.26 1.28 1.31 1.30 1.26 1.24 1.20 1.15 1.17 1.23 1.28 1.28 1.24 1.19 1.18 1.20 1.28 1.34 1.36 1.37 1.41 1.38 1.41 1.48 1.55 1.55 1.57 1.72 1.79 1.77 1.72 1.68 1.62 1.68 1.65 1.50 1.52 1.26
1.21 1.17 1.10 1.09 1.14 1.17 1.17 1.19 1.16 1.15 1.19 1.22 1.17 1.12 1.11 1.05 0.98 0.94 0.95 1.00 1.01 1.03 1.07 1.09 1.15 1.24 1.26 1.30 1.28 1.33 1.36 1.48 1.56 1.63 1.59 1.58 1.59 1.50 1.52 1.58 1.53 1.44 1.30
1.36 1.30 1.19 1.08 1.10 1.15 1.13 1.08 1.04 1.01 0.97 1.00 1.02 0.97 0.89 0.77 0.67 0.66 0.72 0.76 0.82 0.84 0.87 0.85 0.85 1.00 1.10 1.08 0.99 1.10 1.25 1.40 1.47 1.51 1.45 1.37 1.34 1.41 1.40 1.37 1.40 1.40 1.32
1.50 1.53 1.52 1.40 1.34 1.33 1.23 1.09 1.08 1.06 0.98 0.91 0.85 0.84 0.77 0.61 0.61 0.58 0.64 0.76 0.84 0.83 0.85 0.85 0.78 0.82 0.86 0.83 0.81 0.94 1.13 1.18 1.28 1.40 1.41 1.37 1.34 1.36 1.37 1.36 1.43 1.49 1.51
1.54 1.56 1.53 1.50 1.47 1.43 1.26 1.13 1.13 1.10 1.07 1.03 0.92 0.87 0.85 0.77 0.64 0.52 0.57 0.72 0.84 0.85 0.85 0.83 0.72 0.68 0.75 0.76 0.77 0.80 0.88 0.90 1.01 1.24 1.39 1.34 1.34 1.42 1.49 1.46 1.56 1.60 1.51
1.60 1.55 1.50 1.38 1.36 1.30 1.21 1.19 1.16 1.10 1.07 1.02 0.95 0.88 0.80 0.64 0.49 0.43 0.45 0.60 0.78 0.82 0.81 0.81 0.83 0.76 0.72 0.72 0.71 0.76 0.84 0.89 0.91 0.97 1.20 1.23 1.20 1.32 1.44 1.52 1.61 1.57 1.49
1.60 1.47 1.36 1.26 1.25 1.18 1.15 1.09 1.03 0.98 0.96 0.90 0.81 0.77 0.76 0.62 0.41 0.35 0.41 0.58 0.76 0.76 0.72 0.66 0.71 0.73 0.71 0.67 0.72 0.86 0.93 0.98 0.83 0.84 0.95 1.04 1.07 1.15 1.23 1.34 1.57 1.71 1.61
1.36 1.16 1.06 1.06 1.06 1.01 0.96 0.92 0.89 0.87 0.86 0.79 0.69 0.72 0.73 0.69 0.52 0.43 0.46 0.57 0.72 0.71 0.71 0.66 0.61 0.60 0.60 0.62 0.71 0.85 0.94 0.95 0.88 0.88 1.05 1.14 1.12 1.21 1.23 1.34 1.58 1.67 1.57
1.20 1.07 0.99 0.95 0.89 0.86 0.85 0.86 0.82 0.78 0.81 0.81 0.80 0.75 0.69 0.60 0.48 0.40 0.41 0.46 0.60 0.65 0.66 0.70 0.63 0.52 0.49 0.52 0.65 0.72 0.80 0.80 0.91 1.09 1.18 1.20 1.22 1.29 1.29 1.29 1.44 1.53 1.59
1.09 1.05 1.03 0.91 0.76 0.76 0.89 0.87 0.83 0.84 0.86 0.83 0.80 0.74 0.62 0.53 0.41 0.34 0.35 0.40 0.47 0.61 0.70 0.71 0.63 0.52 0.48 0.51 0.58 0.65 0.68 0.79 0.99 1.18 1.26 1.26 1.19 1.17 1.21 1.20 1.32 1.42 1.46
1.05 1.04 0.94 0.81 0.82 0.81 0.86 0.86 0.80 0.79 0.74 0.67 0.65 0.65 0.59 0.51 0.43 0.34 0.36 0.41 0.47 0.54 0.61 0.58 0.54 0.52 0.52 0.63 0.66 0.67 0.77 1.00 1.14 1.20 1.28 1.29 1.19 1.11 1.10 1.07 1.15 1.32 1.31
1.14 1.08 0.94 0.83 0.77 0.75 0.75 0.69 0.64 0.64 0.64 0.61 0.58 0.56 0.53 0.52 0.47 0.44 0.45 0.44 0.45 0.50 0.54 0.55 0.60 0.64 0.67 0.76 0.86 0.95 0.99 1.06 1.06 1.14 1.19 1.15 1.03 1.00 1.07 1.07 1.14 1.24 1.28
1.11 0.99 0.87 0.73 0.66 0.64 0.59 0.54 0.50 0.47 0.44 0.45 0.44 0.43 0.46 0.47 0.41 0.40 0.40 0.40 0.41 0.42 0.44 0.61 0.83 0.88 0.95 1.02 1.04 1.09 1.14 1.08 1.02 1.03 1.06 1.06 1.02 1.00 1.02 0.99 1.07 1.14 1.24
1.04 0.85 0.70 0.61 0.54 0.46 0.43 0.43 0.38 0.34 0.31 0.28 0.29 0.29 0.30 0.29 0.27 0.27 0.31 0.33 0.36 0.39 0.45 0.70 0.83 0.89 0.96 0.99 0.99 1.02 1.08 1.11 1.05 1.00 1.00 0.99 0.99 0.97 1.00 0.96 0.99 1.12 1.21
0.85 0.68 0.53 0.48 0.48 0.45 0.42 0.49 0.50 0.36 0.28 0.24 0.25 0.26 0.26 0.24 0.23 0.25 0.29 0.32 0.38 0.49 0.61 0.78 0.81 0.86 0.92 0.88 0.88 0.92 0.95 0.97 0.92 0.90 0.88 0.87 0.87 0.87 0.94 0.95 0.92 0.93 0.94
0.55 0.45 0.39 0.42 0.41 0.37 0.36 0.41 0.45 0.49 0.48 0.39 0.33 0.30 0.25 0.26 0.26 0.28 0.35 0.40 0.53 0.63 0.70 0.75 0.76 0.77 0.82 0.82 0.82 0.83 0.80 0.76 0.73 0.75 0.81 0.81 0.81 0.81 0.82 0.84 0.80 0.78 0.84
0.38 0.36 0.33 0.32 0.30 0.27 0.26 0.29 0.31 0.38 0.48 0.49 0.42 0.35 0.32 0.36 0.38 0.40 0.45 0.52 0.62 0.66 0.66 0.67 0.69 0.70 0.71 0.78 0.78 0.71 0.67 0.63 0.62 0.63 0.66 0.71 0.73 0.71 0.72 0.69 0.66 0.62 0.70
0.30 0.27 0.28 0.27 0.27 0.26 0.25 0.26 0.29 0.33 0.39 0.44 0.43 0.37 0.38 0.47 0.57 0.58 0.57 0.56 0.56 0.57 0.57 0.57 0.56 0.54 0.57 0.62 0.61 0.57 0.55 0.55 0.55 0.55 0.57 0.57 0.57 0.60 0.62 0.59 0.57 0.59 0.65
0.24 0.22 0.23 0.23 0.25 0.24 0.24 0.26 0.28 0.30 0.37 0.41 0.39 0.37 0.41 0.46 0.54 0.56 0.57 0.54 0.51 0.52 0.54 0.51 0.47 0.44 0.45 0.48 0.50 0.49 0.49 0.50 0.51 0.54 0.52 0.49 0.48 0.49 0.49 0.49 0.50 0.51 0.52
0.25 0.24 0.23 0.24 0.24 0.23 0.24 0.27 0.30 0.32 0.34 0.39 0.42 0.39 0.41 0.44 0.50 0.54 0.56 0.53 0.48 0.47 0.47 0.47 0.43 0.41 0.41 0.43 0.44 0.42 0.41 0.43 0.47 0.52 0.49 0.46 0.45 0.45 0.43 0.44 0.46 0.48 0.47
0.25 0.24 0.22 0.23 0.21 0.21 0.22 0.24 0.26 0.29 0.31 0.37 0.39 0.38 0.40 0.44 0.49 0.53 0.54 0.47 0.38 0.36 0.38 0.42 0.43 0.40 0.38 0.37 0.36 0.36 0.33 0.34 0.38 0.42 0.44 0.41 0.42 0.40 0.38 0.39 0.39 0.45 0.47
0.21 0.22 0.22 0.24 0.23 0.22 0.24 0.24 0.26 0.28 0.28 0.32 0.37 0.35 0.36 0.42 0.45 0.45 0.45 0.38 0.32 0.30 0.31 0.34 0.38 0.37 0.34 0.33 0.32 0.30 0.31 0.30 0.30 0.31 0.32 0.36 0.39 0.36 0.34 0.34 0.36 0.40 0.45
0.19 0.21 0.24 0.25 0.24 0.23 0.22 0.21 0.22 0.25 0.28 0.32 0.36 0.33 0.30 0.33 0.37 0.39 0.38 0.37 0.33 0.31 0.30 0.29 0.30 0.31 0.30 0.30 0.29 0.25 0.27 0.29 0.29 0.26 0.25 0.28 0.32 0.33 0.35 0.38 0.39 0.41 0.43
0.15 0.19 0.23 0.24 0.26 0.23 0.20 0.21 0.23 0.26 0.27 0.28 0.29 0.29 0.28 0.28 0.32 0.34 0.33 0.33 0.30 0.29 0.27 0.27 0.27 0.28 0.31 0.33 0.32 0.30 0.28 0.26 0.26 0.27 0.26 0.28 0.33 0.35 0.38 0.40 0.40 0.43 0.46